Overview Statistics Trail Chart Weather Telemetry Raw packets
 

This is the latest recevied weather packets stored in our database for station/object OK1LPD-5. If no packets are shown the sender has not sent any weather packets the latest 10 day(s).

<< 1 2 3 4 5 6 7 >>
Time Temp. Humidity Pressure Rain* Wind** Luminosity Snow
1788527409 28.89° C 66% 1004 hPa 0 mm - - -
1788526809 27.78° C 68% 1004.3 hPa 0 mm - - -
1788526208 28.89° C 66% 1004.6 hPa 0 mm - - -
1788525609 27.78° C 68% 1004.9 hPa 0 mm - - -
1788525009 27.22° C 69% 1005 hPa 0 mm - - -
1788524408 28.33° C 66% 1005.2 hPa 0 mm - - -
1788523808 28.89° C 66% 1005.5 hPa 0 mm - - -
1788523210 28.33° C 67% 1005.6 hPa 0 mm - - -
1788522610 27.78° C 68% 1005.9 hPa 0 mm - - -
1788522008 27.22° C 71% 1006 hPa 0 mm - - -
1788521410 26.67° C 71% 1006 hPa 0 mm - - -
1788520809 26.67° C 74% 1006.2 hPa 0 mm - - -
1788520210 25.56° C 78% 1006.5 hPa 0 mm - - -
1788519610 25.56° C 81% 1006.9 hPa 0 mm - - -
1788519008 25.56° C 82% 1007.1 hPa 0 mm - - -
1788518409 25.56° C 79% 1007.2 hPa 0 mm - - -
1788517834 25.56° C 80% 1007.5 hPa 0 mm - - -
1788517209 25.56° C 81% 1007.5 hPa 0 mm - - -
1788516608 25.56° C 82% 1008 hPa 0 mm - - -
1788516012 25.56° C 83% 1008.2 hPa 0 mm - - -
1788515410 25° C 84% 1008.2 hPa 0 mm - - -
1788514839 25° C 84% 1008.6 hPa 0 mm - - -
1788514211 24.44° C 85% 1008.9 hPa 0 mm - - -
1788513610 25.56° C 84% 1009.3 hPa 0 mm - - -
1788513010 25.56° C 84% 1009.6 hPa 0 mm - - -

* Rain latest hour (hover to see other rain measurements)
** Current wind speed in m/s (hover to see current wind gust speed)